Home > Weather > Sunderland > Past weeks

Flag for United Kingdom Past Weather in Sunderland, England, United Kingdom — Yesterday and Last 2 Weeks

Now
54 °F

Light rain. Partly sunny.


Feels Like: 54 °F
Forecast: 50 / 59 °F
Wind: 2 mph from North

Location: Newcastle

Current Time: Jun 28, 2016 at 7:45:59 PM

Latest Report: Jun 28, 2016 at 7:20 PM


Visibility: 4 mi

Pressure: 29.74 "Hg

Humidity: 88%

Dew Point: 50 °F

Location of SunderlandLocation

Past Weather in Sunderland — Graph

°F

Sunderland Temperature Yesterday

Maximum temperature yesterday: 63 °F (at 12:50 PM)
Minimum temperature yesterday: 50 °F (at 11:20 PM)
Average temperature yesterday: 57 °F

High & Low Weather Summary for the Past Weeks

 TemperatureHumidityPressure
High72 °F (Jun 22, 3:20 PM)100% (Jun 13, 6:20 PM)30.18 "Hg (Jun 13, 6:20 PM)
Low45 °F (Jun 19, 1:20 AM)49% (Jun 21, 2:20 PM)29.36 "Hg (Jun 14, 2:50 PM)
Average57 °F80%29.84 "Hg
* Reported Jun 13 6:20 PM — Jun 28 6:20 PM, Sunderland, Weather by CustomWeather, © 2016

Note: Actual official high and low records may vary slightly from our data, if they occured in-between our weather recording intervals... More about our weather records

Advertising

Sunderland Weather History for the Previous 24 Hours

Scroll right to see more
 ConditionsComfort  
Time TempWeatherWind HumidityBarometerVisibility
6:20 PM
Tue, Jun 28
55 °FLight rain. Broken clouds.5 mph88%29.77 "Hg4 mi
5:50 PM55 °FLight rain. Mostly cloudy.3 mph88%29.77 "HgN/A
5:20 PM55 °FLight rain. Scattered clouds.2 mph88%29.77 "HgN/A
4:50 PM55 °FLight rain. Scattered clouds.2 mph88%29.80 "Hg5 mi
4:20 PM55 °FLight rain. Partly sunny.3 mph88%29.80 "Hg5 mi
3:50 PM54 °FLight rain. Broken clouds.3 mph88%29.83 "Hg5 mi
3:20 PM54 °FLight rain. Partly sunny.9 mph72%29.83 "Hg5 mi
2:50 PM59 °FSprinkles. Scattered clouds.3 mph68%29.83 "HgN/A
2:20 PM59 °FSprinkles. Scattered clouds.7 mph63%29.83 "HgN/A
1:50 PM63 °FScattered clouds.5 mph56%29.86 "HgN/A
1:20 PM63 °FScattered clouds.2 mph52%29.86 "HgN/A
12:50 PM63 °FScattered clouds.2 mph52%29.86 "HgN/A
12:20 PM63 °FScattered clouds.6 mph56%29.89 "HgN/A
11:50 AM63 °FPassing clouds.6 mph52%29.89 "HgN/A
11:20 AM63 °FPassing clouds.7 mph52%29.89 "HgN/A
10:50 AM63 °FPassing clouds.6 mph49%29.92 "HgN/A
10:20 AM63 °FPassing clouds.5 mph52%29.92 "HgN/A
9:50 AM63 °FPassing clouds.6 mph56%29.92 "HgN/A
9:20 AM59 °FPassing clouds.5 mph63%29.95 "HgN/A
8:50 AM61 °FPassing clouds.6 mph59%29.95 "HgN/A
8:20 AM61 °FPassing clouds.5 mph68%29.95 "HgN/A
7:50 AM57 °FSunny.3 mph72%29.95 "Hg10 mi
7:20 AM55 °FSunny.3 mph82%29.95 "Hg10 mi
6:50 AM54 °FPassing clouds.5 mph82%29.98 "HgN/A
6:20 AM54 °FSunny.2 mph88%29.95 "Hg10 mi
5:50 AM48 °FSunny.1 mph94%29.98 "Hg10 mi
4:50 AM45 °FClear.3 mph93%29.98 "Hg10 mi
4:20 AM45 °FClear.5 mph93%29.98 "Hg10 mi
3:50 AM46 °FClear.5 mph87%29.98 "Hg10 mi
3:20 AM46 °FClear.3 mph93%29.98 "Hg10 mi
2:50 AM46 °FClear.6 mph93%29.98 "Hg10 mi
2:20 AM48 °FClear.6 mph87%30.01 "Hg10 mi
1:50 AM48 °FClear.5 mph87%30.01 "Hg10 mi
1:20 AM48 °FPassing clouds.6 mph94%30.01 "HgN/A
12:50 AM50 °FClear.9 mph88%30.01 "Hg10 mi
12:20 AM50 °FPassing clouds.9 mph88%30.01 "HgN/A
11:50 PM
Mon, Jun 27
50 °FPassing clouds.8 mph82%30.01 "HgN/A
11:20 PM50 °FPassing clouds.6 mph82%30.01 "HgN/A
10:50 PM52 °FPassing clouds.9 mph82%30.01 "HgN/A
10:20 PM52 °FPassing clouds.7 mph82%30.01 "HgN/A
9:50 PM52 °FPassing clouds.6 mph77%30.01 "HgN/A
9:20 PM55 °FPassing clouds.9 mph72%30.01 "HgN/A
8:50 PM55 °FPassing clouds.12 mph72%29.98 "HgN/A
8:20 PM57 °FPassing clouds.13 mph72%29.98 "HgN/A
7:20 PM59 °FPassing clouds.17 mph63%29.98 "HgN/A
Weather by CustomWeather, © 2016

See weather overviewHow to use our weather pages